Content
SEND FEEDBACK

Daily
Averages
Monthly
Summary
United States of America

HERMANN, MISSOURI


Home > North America > United States > Missouri
Elevation: 590 feet     Latitude: 38 42N     Longitude: 091 25W

WEATHER
 
SELECT A DAY
Number of Records: 56,122;   Date Range: 2/9/12 - 10/1/14
 
SHARE

PRINT THIS DATA

[ ← Previous Day ]
WEATHER ALMANAC - JANUARY 6, 2013
[ Next Day → ]
[ °C ]   °F
Weather ElementAverageHighLow
Temperature32.4 °F39.2 °F (12:35 am)23 °F (10:55 pm)
Dewpoint24.8 °F32 °F (12:35 am)19.4 °F (4:35 pm)
Humidity74.5 %100 % (11:35 pm)52 % (4:35 pm)
Barometer30.26 in30.38 in (10:55 pm)30.10 in (12:35 am)
Wind Speed8 mph21.9 mph (6:15 am)
Wind Gust27.6 mph (6:35 am)
Weather ElementAverage
Visibility10 mi
Wind DirectionSSW (218.3 °)

Weather ElementTotal
Precipitation---
Heating Degree Days33.9 (Base 65)
Averaged from 63 records on January 6, 2013
WEATHER CONDITIONS BREAKOUT
WIND DIRECTION BREAKOUT
WEATHER BY HOUR - JANUARY 6, 2013
[ °C ]   °F
Local TimeTemperatureDewpointHumidityBarometerVisibilityWind DirectionWind SpeedGust SpeedPrecipitationEventsConditions
12:35 AM39.2 °F32.0 °F75 %30.10 in10.0 miWSW (240°)6.9 mphOvercast
12:55 AM39.2 °F32.0 °F75 %30.10 in10.0 miWest (260°)5.8 mphOvercast
1:15 AM39.2 °F32.0 °F75 %30.10 in10.0 miWest (270°)10.4 mph16.1 mphOvercast
1:35 AM39.2 °F32.0 °F75 %30.11 in10.0 miWNW (290°)11.5 mph19.6 mphOvercast
1:55 AM39.2 °F32.0 °F75 %30.11 in10.0 miWest (280°)8.1 mphScattered Clouds
2:15 AM37.4 °F32.0 °F81 %30.11 in10.0 miWNW (290°)8.1 mphClear
2:35 AM37.4 °F32.0 °F81 %30.12 in10.0 miWNW (290°)8.1 mphClear
2:55 AM37.4 °F32.0 °F81 %30.13 in10.0 miWNW (290°)9.2 mphClear
3:15 AM35.6 °F30.2 °F81 %30.12 in10.0 miWNW (290°)8.1 mphClear
3:35 AM35.6 °F30.2 °F81 %30.12 in10.0 miWNW (290°)8.1 mphClear
3:55 AM35.6 °F28.4 °F75 %30.12 in10.0 miWest (280°)6.9 mphClear
4:15 AM33.8 °F28.4 °F81 %30.12 in10.0 miWNW (290°)5.8 mphClear
4:35 AM33.8 °F28.4 °F81 %30.12 in10.0 miWest (280°)3.5 mphClear
4:55 AM32.0 °F28.4 °F87 %30.12 in10.0 miWNW (290°)5.8 mphPartly Cloudy
5:15 AM32.0 °F26.6 °F80 %30.13 in10.0 miWNW (290°)8.1 mph18.4 mphMostly Cloudy
5:35 AM32.0 °F26.6 °F80 %30.14 in10.0 miWNW (300°)12.7 mph20.7 mphOvercast
5:55 AM32.0 °F26.6 °F80 %30.16 in10.0 miWNW (300°)16.1 mph24.2 mphMostly Cloudy
6:15 AM32.0 °F26.6 °F80 %30.17 in10.0 miWNW (290°)21.9 mph26.5 mphOvercast
6:35 AM32.0 °F23.0 °F69 %30.18 in10.0 miNW (320°)17.3 mph27.6 mphOvercast
6:55 AM32.0 °F23.0 °F69 %30.20 in10.0 miNW (310°)13.8 mph27.6 mphOvercast
7:15 AM32.0 °F23.0 °F69 %30.21 in10.0 miWNW (300°)13.8 mphOvercast
7:35 AM32.0 °F23.0 °F69 %30.22 in10.0 miWNW (300°)9.2 mphOvercast
7:55 AM32.0 °F23.0 °F69 %30.22 in10.0 miWNW (300°)10.4 mphOvercast
8:15 AM32.0 °F23.0 °F69 %30.23 in10.0 miWNW (290°)9.2 mphOvercast
8:35 AM32.0 °F23.0 °F69 %30.24 in10.0 miWNW (300°)12.7 mphOvercast
8:55 AM32.0 °F23.0 °F69 %30.25 in10.0 miWNW (300°)11.5 mphOvercast
9:15 AM32.0 °F23.0 °F69 %30.26 in10.0 miWNW (290°)11.5 mph20.7 mphOvercast
9:35 AM32.0 °F23.0 °F69 %30.27 in10.0 miWNW (300°)13.8 mph17.3 mphOvercast
9:55 AM32.0 °F23.0 °F69 %30.28 in10.0 miWNW (300°)15.0 mphOvercast
10:15 AM32.0 °F24.8 °F75 %30.29 in10.0 miNW (310°)12.7 mph19.6 mphOvercast
10:35 AM32.0 °F24.8 °F75 %30.29 in10.0 miWNW (300°)13.8 mphOvercast
11:15 AM32.0 °F23.0 °F69 %30.30 in10.0 miWNW (300°)11.5 mphMostly Cloudy
11:35 AM32.0 °F23.0 °F69 %30.29 in10.0 miWNW (300°)12.7 mphMostly Cloudy
11:55 AM32.0 °F24.8 °F75 %30.29 in10.0 miWNW (290°)16.1 mph24.2 mphScattered Clouds
12:15 PM32.0 °F24.8 °F75 %30.29 in10.0 miWNW (300°)17.3 mph23.0 mphScattered Clouds
12:35 PM32.0 °F24.8 °F75 %30.28 in10.0 miWNW (300°)13.8 mph20.7 mphPartly Cloudy
12:55 PM33.8 °F24.8 °F70 %30.28 in10.0 miWest (280°)11.5 mph16.1 mphClear
1:15 PM33.8 °F23.0 °F65 %30.28 in10.0 miWNW (290°)16.1 mph21.9 mphClear
1:35 PM33.8 °F23.0 °F65 %30.29 in10.0 miWNW (290°)12.7 mph16.1 mphClear
1:55 PM33.8 °F23.0 °F65 %30.29 in10.0 miWNW (290°)15.0 mph20.7 mphClear
2:15 PM35.6 °F23.0 °F60 %30.30 in10.0 miWNW (300°)12.7 mph20.7 mphClear
3:15 PM37.4 °F23.0 °F56 %30.31 in10.0 miWest (280°)8.1 mphClear
3:35 PM37.4 °F23.0 °F56 %30.32 in10.0 miWest (280°)6.9 mphClear
4:15 PM35.6 °F21.2 °F56 %30.33 in10.0 miWest (280°)5.8 mphClear
4:35 PM35.6 °F19.4 °F52 %30.34 in10.0 miWNW (290°)6.9 mphClear
4:55 PM35.6 °F19.4 °F52 %30.34 in10.0 miWNW (300°)5.8 mphClear
5:15 PM33.8 °F19.4 °F56 %30.34 in10.0 miCalmClear
5:35 PM33.8 °F23.0 °F65 %30.35 in10.0 miNorth (350°)3.5 mphClear
5:55 PM33.8 °F21.2 °F60 %30.36 in10.0 miCalmClear
6:15 PM32.0 °F24.8 °F75 %30.36 in10.0 miCalmClear
6:35 PM32.0 °F23.0 °F69 %30.36 in10.0 miCalmClear
6:55 PM30.2 °F23.0 °F75 %30.37 in10.0 miCalmClear
7:35 PM26.6 °F23.0 °F86 %30.37 in10.0 miCalmClear
7:55 PM26.6 °F23.0 °F86 %30.36 in10.0 miCalmClear
8:15 PM26.6 °F23.0 °F86 %30.37 in10.0 miCalmClear
9:15 PM24.8 °F23.0 °F93 %30.37 in10.0 miCalmClear
9:35 PM24.8 °F23.0 °F93 %30.37 in10.0 miCalmClear
9:55 PM24.8 °F23.0 °F93 %30.37 in10.0 miCalmClear
10:15 PM24.8 °F23.0 °F93 %30.37 in10.0 miCalmClear
10:35 PM24.8 °F23.0 °F93 %30.37 in10.0 miCalmClear
10:55 PM23.0 °F21.2 °F93 %30.38 in10.0 miCalmClear
11:35 PM23.0 °F23.0 °F100 %30.38 in10.0 miCalmClear
11:55 PM23.0 °F19.4 °F86 %30.38 in10.0 miCalmClear
Hourly data recorded from KFYG, located miles away from Hermann, Missouri







STORIES FROM OUR PARTNERS